ZSCNJ DRZA-FKKN

Flight info

Callsign ZSCNJ
Flight time N/A
Altitude 7000
Route BULGU R986 MOTOP/N0170F080 R986 GARID DCT KAN V593 YOL/N0170F070
Aircraft PA24/L-SDGRY/S

Departure

Time N/A
Airport Mano Dayak International Airport (DRZA)

Arrival

Time 2026-04-18 12:29
Airport N'Gaoundéré Airport (FKKN)
Time Latitude Longitude Altitude Speed Heading
2026-04-18 11:55 6.12423 14.17127 8862 ft 162 kts 341°
2026-04-18 11:55 6.13471 14.16697 8862 ft 162 kts 342°
2026-04-18 11:56 6.14518 14.16298 8862 ft 162 kts 343°
2026-04-18 11:56 6.15584 14.15912 8862 ft 162 kts 344°
2026-04-18 11:56 6.16642 14.15530 8862 ft 161 kts 344°
2026-04-18 11:56 6.17695 14.15145 8860 ft 161 kts 344°
2026-04-18 11:57 6.18730 14.14753 8860 ft 161 kts 343°
2026-04-18 11:57 6.19777 14.14341 8866 ft 162 kts 342°
2026-04-18 11:57 6.20814 14.13900 8860 ft 162 kts 340°
2026-04-18 11:57 6.21844 14.13431 8864 ft 161 kts 339°
2026-04-18 11:58 6.22862 14.12937 8861 ft 162 kts 338°
2026-04-18 11:58 6.23857 14.12434 8860 ft 162 kts 336°
2026-04-18 11:58 6.24869 14.11900 8863 ft 163 kts 336°
2026-04-18 11:58 6.25856 14.11360 8865 ft 163 kts 335°
2026-04-18 11:59 6.26851 14.10801 8861 ft 163 kts 334°
2026-04-18 11:59 6.27840 14.10233 8864 ft 164 kts 334°
2026-04-18 11:59 6.28828 14.09661 8863 ft 164 kts 334°
2026-04-18 11:59 6.29809 14.09101 8863 ft 164 kts 334°
2026-04-18 12:00 6.30805 14.08545 8862 ft 163 kts 335°
2026-04-18 12:00 6.31804 14.08002 8859 ft 163 kts 336°
2026-04-18 12:00 6.32798 14.07480 8860 ft 163 kts 336°
2026-04-18 12:00 6.33807 14.06964 8858 ft 162 kts 337°
2026-04-18 12:01 6.35847 14.05952 8858 ft 163 kts 338°
2026-04-18 12:01 6.36858 14.05457 8860 ft 163 kts 338°
2026-04-18 12:01 6.37885 14.04954 8856 ft 163 kts 338°
2026-04-18 12:02 6.38908 14.04451 8858 ft 162 kts 338°
2026-04-18 12:02 6.39910 14.03965 8856 ft 162 kts 338°
2026-04-18 12:02 6.40928 14.03469 8855 ft 162 kts 338°
2026-04-18 12:02 6.41946 14.02970 8858 ft 163 kts 338°
2026-04-18 12:03 6.42967 14.02468 8857 ft 163 kts 338°
2026-04-18 12:03 6.43989 14.01963 8857 ft 163 kts 338°
2026-04-18 12:03 6.44993 14.01468 8856 ft 162 kts 338°
2026-04-18 12:03 6.46007 14.00963 8859 ft 162 kts 337°
2026-04-18 12:04 6.47023 14.00455 8857 ft 163 kts 338°
2026-04-18 12:04 6.48040 13.99948 8855 ft 163 kts 337°
2026-04-18 12:04 6.49046 13.99444 8854 ft 164 kts 337°
2026-04-18 12:04 6.50069 13.98926 8856 ft 163 kts 337°
2026-04-18 12:05 6.51083 13.98409 8856 ft 163 kts 337°
2026-04-18 12:05 6.52084 13.97901 8855 ft 162 kts 337°
2026-04-18 12:05 6.53091 13.97392 8855 ft 162 kts 338°
2026-04-18 12:05 6.54104 13.96889 8855 ft 162 kts 338°
2026-04-18 12:06 6.55121 13.96396 8857 ft 162 kts 338°
2026-04-18 12:06 6.56137 13.95906 8853 ft 162 kts 338°
2026-04-18 12:06 6.57143 13.95426 8852 ft 162 kts 339°
2026-04-18 12:06 6.58167 13.94939 8856 ft 162 kts 338°
2026-04-18 12:07 6.59186 13.94449 8856 ft 161 kts 338°
2026-04-18 12:07 6.60199 13.93960 8854 ft 161 kts 338°
2026-04-18 12:07 6.61199 13.93473 8857 ft 162 kts 338°
2026-04-18 12:07 6.62215 13.92975 8855 ft 162 kts 338°
2026-04-18 12:08 6.63231 13.92473 8856 ft 162 kts 338°
2026-04-18 12:08 6.64232 13.91974 8854 ft 162 kts 337°
2026-04-18 12:08 6.65239 13.91465 8848 ft 162 kts 337°
2026-04-18 12:08 6.66244 13.90953 8852 ft 162 kts 337°
2026-04-18 12:09 6.67251 13.90438 8851 ft 162 kts 337°
2026-04-18 12:09 6.68242 13.89928 8855 ft 161 kts 337°
2026-04-18 12:09 6.69246 13.89410 8851 ft 162 kts 337°
2026-04-18 12:09 6.70252 13.88897 8851 ft 162 kts 337°
2026-04-18 12:10 6.71261 13.88386 8850 ft 163 kts 337°
2026-04-18 12:10 6.72273 13.87878 8851 ft 162 kts 337°
2026-04-18 12:10 6.73273 13.87375 8853 ft 162 kts 337°
2026-04-18 12:10 6.74282 13.86869 8853 ft 162 kts 338°
2026-04-18 12:11 6.75290 13.86365 8852 ft 162 kts 337°
2026-04-18 12:11 6.76301 13.85857 8856 ft 162 kts 338°
2026-04-18 12:11 6.77312 13.85353 8853 ft 162 kts 338°
2026-04-18 12:11 6.78312 13.84856 8854 ft 162 kts 338°
2026-04-18 12:12 6.79327 13.84354 8855 ft 162 kts 338°
2026-04-18 12:12 6.80330 13.83858 8853 ft 162 kts 338°
2026-04-18 12:12 6.81341 13.83358 8854 ft 162 kts 338°
2026-04-18 12:12 6.82354 13.82856 8851 ft 162 kts 338°
2026-04-18 12:13 6.83365 13.82355 8851 ft 162 kts 338°
2026-04-18 12:13 6.84375 13.81854 8852 ft 161 kts 338°
2026-04-18 12:13 6.85376 13.81357 8853 ft 162 kts 337°
2026-04-18 12:13 6.86389 13.80848 8851 ft 162 kts 337°
2026-04-18 12:14 6.87389 13.80354 8854 ft 162 kts 338°
2026-04-18 12:14 6.88388 13.79857 8834 ft 149 kts 338°
2026-04-18 12:14 6.89218 13.79436 8797 ft 120 kts 338°
2026-04-18 12:14 6.89934 13.79063 8791 ft 115 kts 338°
2026-04-18 12:15 6.90689 13.78669 8807 ft 129 kts 337°
2026-04-18 12:15 6.91507 13.78241 8843 ft 139 kts 337°
2026-04-18 12:15 6.92398 13.77779 8858 ft 147 kts 336°
2026-04-18 12:15 6.93326 13.77293 8861 ft 152 kts 337°
2026-04-18 12:16 6.94276 13.76818 8868 ft 156 kts 338°
2026-04-18 12:16 6.95261 13.76339 8873 ft 158 kts 338°
2026-04-18 12:16 6.96260 13.75858 8866 ft 160 kts 339°
2026-04-18 12:16 6.97276 13.75385 8859 ft 162 kts 340°
2026-04-18 12:17 6.98294 13.74918 8859 ft 163 kts 340°
2026-04-18 12:17 6.99321 13.74430 8855 ft 163 kts 339°
2026-04-18 12:17 7.00344 13.73927 8852 ft 163 kts 338°
2026-04-18 12:17 7.01363 13.73412 8854 ft 163 kts 337°
2026-04-18 12:18 7.02377 13.72889 8855 ft 163 kts 336°
2026-04-18 12:18 7.03378 13.72371 8858 ft 164 kts 336°
2026-04-18 12:18 7.04385 13.71839 8857 ft 163 kts 336°
2026-04-18 12:18 7.05396 13.71301 8868 ft 163 kts 337°
2026-04-18 12:19 7.06400 13.70785 8872 ft 163 kts 337°
2026-04-18 12:19 7.07417 13.70263 8879 ft 164 kts 337°
2026-04-18 12:19 7.08428 13.69755 8889 ft 164 kts 338°
2026-04-18 12:19 7.09449 13.69250 8897 ft 163 kts 337°
2026-04-18 12:20 7.10469 13.68742 8875 ft 165 kts 337°
2026-04-18 12:20 7.11520 13.68215 8620 ft 171 kts 336°
2026-04-18 12:20 7.12562 13.67668 8483 ft 168 kts 337°
2026-04-18 12:20 7.13623 13.67143 8248 ft 171 kts 336°
2026-04-18 12:21 7.14679 13.66591 8036 ft 173 kts 336°
2026-04-18 12:21 7.15729 13.66045 7913 ft 168 kts 335°
2026-04-18 12:21 7.16786 13.65535 7697 ft 169 kts 337°
2026-04-18 12:21 7.17862 13.65033 7519 ft 169 kts 338°
2026-04-18 12:22 7.18923 13.64524 7368 ft 168 kts 336°
2026-04-18 12:22 7.19959 13.63991 7172 ft 169 kts 334°
2026-04-18 12:22 7.20993 13.63430 7014 ft 168 kts 333°
2026-04-18 12:22 7.22039 13.62912 6873 ft 167 kts 336°
2026-04-18 12:23 7.23072 13.62404 6717 ft 167 kts 334°
2026-04-18 12:23 7.24123 13.61911 6576 ft 166 kts 336°
2026-04-18 12:23 7.25168 13.61406 6436 ft 166 kts 335°
2026-04-18 12:23 7.26219 13.60919 6286 ft 166 kts 335°
2026-04-18 12:24 7.27265 13.60433 6139 ft 165 kts 335°
2026-04-18 12:24 7.28292 13.59955 5994 ft 164 kts 336°
2026-04-18 12:24 7.29328 13.59464 5843 ft 164 kts 335°
2026-04-18 12:24 7.30362 13.58974 5699 ft 163 kts 335°
2026-04-18 12:25 7.31391 13.58479 5555 ft 163 kts 334°
2026-04-18 12:25 7.32401 13.57976 5411 ft 163 kts 334°
2026-04-18 12:25 7.33412 13.57461 5279 ft 162 kts 333°
2026-04-18 12:25 7.34413 13.56932 5145 ft 162 kts 332°
2026-04-18 12:26 7.35228 13.56138 4864 ft 170 kts 301°
2026-04-18 12:26 7.35818 13.55146 4818 ft 161 kts 310°
2026-04-18 12:26 7.36758 13.54652 4711 ft 149 kts 356°
2026-04-18 12:26 7.37684 13.54945 4722 ft 135 kts 32°
2026-04-18 12:27 7.38483 13.55393 4714 ft 127 kts 28°
2026-04-18 12:27 7.39223 13.55813 4720 ft 120 kts 38°
2026-04-18 12:27 7.39578 13.56488 4648 ft 109 kts 90°
2026-04-18 12:27 7.39298 13.57152 4547 ft 102 kts 141°
2026-04-18 12:28 7.38629 13.57226 4381 ft 103 kts 203°
2026-04-18 12:28 7.38214 13.56990 4195 ft 99 kts 210°
2026-04-18 12:28 7.37438 13.56623 3828 ft 89 kts 201°
2026-04-18 12:28 7.36896 13.56404 3669 ft 80 kts 201°
2026-04-18 12:29 7.36433 13.56217 3621 ft 58 kts 202°
2026-04-18 12:29 7.36217 13.56129 3622 ft 44 kts 202°
2026-04-18 12:29 7.36046 13.56061 3626 ft 13 kts 201°
2026-04-18 12:29 7.35951 13.56023 3628 ft 12 kts 191°
2026-04-18 12:30 7.35909 13.56038 3628 ft 9 kts 130°
2026-04-18 12:30 7.35882 13.56083 3628 ft 7 kts 111°
2026-04-18 12:30 7.35862 13.56130 3628 ft 8 kts 114°
2026-04-18 12:30 7.35841 13.56182 3628 ft 9 kts 109°
2026-04-18 12:31 7.35827 13.56216 3628 ft 4 kts 153°
2026-04-18 12:31 7.35794 13.56243 3629 ft 5 kts 112°
2026-04-18 12:31 7.35789 13.56257 3629 ft 0 kts 110°